owner,sensor,date,latitude,longitude,sea_surface_height_above_sea_level,qcFlag 
COMPS,ioos:station:USF.COMPS:ANC:1,2012-09-07T12:00:00Z,28.1930,-82.7890,0.075,1111122 
COMPS,ioos:station:USF.COMPS:ANC:1,2012-09-07T12:06:00Z,28.1930,-82.7890,0.055,1111122 
COMPS,ioos:station:USF.COMPS:ANC:1,2012-09-07T12:12:00Z,28.1930,-82.7890,0.038,1111122 
COMPS,ioos:station:USF.COMPS:ANC:1,2012-09-07T12:18:00Z,28.1930,-82.7890,0.034,1111122 
COMPS,ioos:station:USF.COMPS:ANC:1,2012-09-07T12:24:00Z,28.1930,-82.7890,0.028,1111122 
COMPS,ioos:station:USF.COMPS:ANC:1,2012-09-07T12:30:00Z,28.1930,-82.7890,0.015,1111122 
COMPS,ioos:station:USF.COMPS:ANC:1,2012-09-07T12:36:00Z,28.1930,-82.7890,-0.001,1111122 
COMPS,ioos:station:USF.COMPS:ANC:1,2012-09-07T12:42:00Z,28.1930,-82.7890,-0.012,1111122 
COMPS,ioos:station:USF.COMPS:ANC:1,2012-09-07T12:48:00Z,28.1930,-82.7890,-0.021,1111122 
COMPS,ioos:station:USF.COMPS:ANC:1,2012-09-07T12:54:00Z,28.1930,-82.7890,-0.035,1111122 
COMPS,ioos:station:USF.COMPS:ANC:1,2012-09-07T13:00:00Z,28.1930,-82.7890,-0.048,1111122 
COMPS,ioos:station:USF.COMPS:ANC:1,2012-09-07T13:06:00Z,28.1930,-82.7890,-0.061,1111122 
COMPS,ioos:station:USF.COMPS:ANC:1,2012-09-07T13:12:00Z,28.1930,-82.7890,-0.078,1111122 
COMPS,ioos:station:USF.COMPS:ANC:1,2012-09-07T13:18:00Z,28.1930,-82.7890,-0.097,1111122 
COMPS,ioos:station:USF.COMPS:ANC:1,2012-09-07T13:24:00Z,28.1930,-82.7890,-0.106,1111122 
COMPS,ioos:station:USF.COMPS:ANC:1,2012-09-07T13:30:00Z,28.1930,-82.7890,-0.115,1111122 
COMPS,ioos:station:USF.COMPS:ANC:1,2012-09-07T13:36:00Z,28.1930,-82.7890,-0.121,1111122 
COMPS,ioos:station:USF.COMPS:ANC:1,2012-09-07T13:42:00Z,28.1930,-82.7890,-0.13,1111122 
COMPS,ioos:station:USF.COMPS:ANC:1,2012-09-07T13:48:00Z,28.1930,-82.7890,-0.14,1111122 
COMPS,ioos:station:USF.COMPS:ANC:1,2012-09-07T13:54:00Z,28.1930,-82.7890,-0.152,1111122 
COMPS,ioos:station:USF.COMPS:ANC:1,2012-09-07T14:00:00Z,28.1930,-82.7890,-0.155,1111122 
COMPS,ioos:station:USF.COMPS:ANC:1,2012-09-07T14:06:00Z,28.1930,-82.7890,-0.151,1111122 
COMPS,ioos:station:USF.COMPS:ANC:1,2012-09-07T14:12:00Z,28.1930,-82.7890,-0.177,1111122 
COMPS,ioos:station:USF.COMPS:ANC:1,2012-09-07T14:18:00Z,28.1930,-82.7890,-0.189,1111122 
COMPS,ioos:station:USF.COMPS:ANC:1,2012-09-07T14:24:00Z,28.1930,-82.7890,-0.207,1111122 
COMPS,ioos:station:USF.COMPS:ANC:1,2012-09-07T14:30:00Z,28.1930,-82.7890,-0.222,1111122 
COMPS,ioos:station:USF.COMPS:ANC:1,2012-09-07T14:36:00Z,28.1930,-82.7890,-0.228,1111122 
COMPS,ioos:station:USF.COMPS:ANC:1,2012-09-07T14:42:00Z,28.1930,-82.7890,-0.23,1111122 
COMPS,ioos:station:USF.COMPS:ANC:1,2012-09-07T14:48:00Z,28.1930,-82.7890,-0.235,1111122 
COMPS,ioos:station:USF.COMPS:ANC:1,2012-09-07T14:54:00Z,28.1930,-82.7890,-0.239,1111122 
COMPS,ioos:station:USF.COMPS:ANC:1,2012-09-07T16:00:00Z,28.1930,-82.7890,-0.174,1111122 
COMPS,ioos:station:USF.COMPS:ANC:1,2012-09-07T16:06:00Z,28.1930,-82.7890,-0.177,1111122 
COMPS,ioos:station:USF.COMPS:ANC:1,2012-09-07T16:12:00Z,28.1930,-82.7890,-0.179,1111122 
COMPS,ioos:station:USF.COMPS:ANC:1,2012-09-07T16:18:00Z,28.1930,-82.7890,-0.181,1111122 
COMPS,ioos:station:USF.COMPS:ANC:1,2012-09-07T16:24:00Z,28.1930,-82.7890,-0.178,1111122 
COMPS,ioos:station:USF.COMPS:ANC:1,2012-09-07T16:30:00Z,28.1930,-82.7890,-0.168,1111122 
COMPS,ioos:station:USF.COMPS:ANC:1,2012-09-07T16:36:00Z,28.1930,-82.7890,-0.155,1111122 
COMPS,ioos:station:USF.COMPS:ANC:1,2012-09-07T16:42:00Z,28.1930,-82.7890,-0.147,1111122 
COMPS,ioos:station:USF.COMPS:ANC:1,2012-09-07T16:48:00Z,28.1930,-82.7890,-0.141,1111122 
COMPS,ioos:station:USF.COMPS:ANC:1,2012-09-07T16:54:00Z,28.1930,-82.7890,-0.137,1111122 
COMPS,ioos:station:USF.COMPS:ANC:1,2012-09-07T17:00:00Z,28.1930,-82.7890,-0.139,1111122 
COMPS,ioos:station:USF.COMPS:ANC:1,2012-09-07T17:06:00Z,28.1930,-82.7890,-0.128,1111122 
COMPS,ioos:station:USF.COMPS:ANC:1,2012-09-07T17:12:00Z,28.1930,-82.7890,-0.107,1111122 
COMPS,ioos:station:USF.COMPS:ANC:1,2012-09-07T17:18:00Z,28.1930,-82.7890,-0.102,1111122 
COMPS,ioos:station:USF.COMPS:ANC:1,2012-09-07T17:24:00Z,28.1930,-82.7890,-0.102,1111122 
COMPS,ioos:station:USF.COMPS:ANC:1,2012-09-07T17:30:00Z,28.1930,-82.7890,-0.094,1111122 
COMPS,ioos:station:USF.COMPS:ANC:1,2012-09-07T17:36:00Z,28.1930,-82.7890,-0.081,1111122 
COMPS,ioos:station:USF.COMPS:ANC:1,2012-09-07T17:42:00Z,28.1930,-82.7890,-0.078,1111122 
COMPS,ioos:station:USF.COMPS:ANC:1,2012-09-07T17:48:00Z,28.1930,-82.7890,-0.074,1111122 
COMPS,ioos:station:USF.COMPS:ANC:1,2012-09-07T17:54:00Z,28.1930,-82.7890,-0.059,1111122 
COMPS,ioos:station:USF.COMPS:ANC:1,2012-09-07T18:00:00Z,28.1930,-82.7890,-0.051,1111122 
COMPS,ioos:station:USF.COMPS:ANC:1,2012-09-07T18:06:00Z,28.1930,-82.7890,-0.045,1111122 
COMPS,ioos:station:USF.COMPS:ANC:1,2012-09-07T18:12:00Z,28.1930,-82.7890,-0.024,1111122 
COMPS,ioos:station:USF.COMPS:ANC:1,2012-09-07T18:18:00Z,28.1930,-82.7890,-0.035,1111122 
COMPS,ioos:station:USF.COMPS:ANC:1,2012-09-07T18:24:00Z,28.1930,-82.7890,-0.012,1111122 
COMPS,ioos:station:USF.COMPS:ANC:1,2012-09-07T18:30:00Z,28.1930,-82.7890,0.011,1111122 
COMPS,ioos:station:USF.COMPS:ANC:1,2012-09-07T18:36:00Z,28.1930,-82.7890,0.022,1111122 
COMPS,ioos:station:USF.COMPS:ANC:1,2012-09-07T18:42:00Z,28.1930,-82.7890,0.034,1111122 
COMPS,ioos:station:USF.COMPS:ANC:1,2012-09-07T18:48:00Z,28.1930,-82.7890,0.043,1111122 
COMPS,ioos:station:USF.COMPS:ANC:1,2012-09-07T18:54:00Z,28.1930,-82.7890,0.052,1111122 
COMPS,ioos:station:USF.COMPS:ANC:1,2012-09-07T19:00:00Z,28.1930,-82.7890,0.064,1111122 
COMPS,ioos:station:USF.COMPS:ANC:1,2012-09-07T19:06:00Z,28.1930,-82.7890,0.083,1111122 
COMPS,ioos:station:USF.COMPS:ANC:1,2012-09-07T19:12:00Z,28.1930,-82.7890,0.098,1111122 
COMPS,ioos:station:USF.COMPS:ANC:1,2012-09-07T19:18:00Z,28.1930,-82.7890,0.111,1111122 
COMPS,ioos:station:USF.COMPS:ANC:1,2012-09-07T19:24:00Z,28.1930,-82.7890,0.124,1111122 
COMPS,ioos:station:USF.COMPS:ANC:1,2012-09-07T19:30:00Z,28.1930,-82.7890,0.134,1111122 
COMPS,ioos:station:USF.COMPS:ANC:1,2012-09-07T19:36:00Z,28.1930,-82.7890,0.145,1111122 
COMPS,ioos:station:USF.COMPS:ANC:1,2012-09-07T19:42:00Z,28.1930,-82.7890,0.152,1111122 
COMPS,ioos:station:USF.COMPS:ANC:1,2012-09-07T19:48:00Z,28.1930,-82.7890,0.16,1111122 
COMPS,ioos:station:USF.COMPS:ANC:1,2012-09-07T19:54:00Z,28.1930,-82.7890,0.166,1111122 
COMPS,ioos:station:USF.COMPS:ANC:1,2012-09-07T20:00:00Z,28.1930,-82.7890,0.169,1111122 
COMPS,ioos:station:USF.COMPS:ANC:1,2012-09-07T20:06:00Z,28.1930,-82.7890,0.172,1111122 
COMPS,ioos:station:USF.COMPS:ANC:1,2012-09-07T20:12:00Z,28.1930,-82.7890,0.183,1111122 
COMPS,ioos:station:USF.COMPS:ANC:1,2012-09-07T20:18:00Z,28.1930,-82.7890,0.187,1111122 
COMPS,ioos:station:USF.COMPS:ANC:1,2012-09-07T20:24:00Z,28.1930,-82.7890,0.199,1111122 
COMPS,ioos:station:USF.COMPS:ANC:1,2012-09-07T20:30:00Z,28.1930,-82.7890,0.194,1111122 
COMPS,ioos:station:USF.COMPS:ANC:1,2012-09-07T20:36:00Z,28.1930,-82.7890,0.206,1111122 
COMPS,ioos:station:USF.COMPS:ANC:1,2012-09-07T20:42:00Z,28.1930,-82.7890,0.211,1111122 
COMPS,ioos:station:USF.COMPS:ANC:1,2012-09-07T20:48:00Z,28.1930,-82.7890,0.215,1111122 
COMPS,ioos:station:USF.COMPS:ANC:1,2012-09-07T20:54:00Z,28.1930,-82.7890,0.219,1111122 
COMPS,ioos:station:USF.COMPS:ANC:1,2012-09-07T21:00:00Z,28.1930,-82.7890,0.218,1111122 
COMPS,ioos:station:USF.COMPS:ANC:1,2012-09-07T21:06:00Z,28.1930,-82.7890,0.222,1111122 
COMPS,ioos:station:USF.COMPS:ANC:1,2012-09-07T21:12:00Z,28.1930,-82.7890,0.222,1111122 
COMPS,ioos:station:USF.COMPS:ANC:1,2012-09-07T21:18:00Z,28.1930,-82.7890,0.215,1111122 
COMPS,ioos:station:USF.COMPS:ANC:1,2012-09-07T21:24:00Z,28.1930,-82.7890,0.214,1111122 
COMPS,ioos:station:USF.COMPS:ANC:1,2012-09-07T21:30:00Z,28.1930,-82.7890,0.221,1111122 
COMPS,ioos:station:USF.COMPS:ANC:1,2012-09-07T21:36:00Z,28.1930,-82.7890,0.222,1111122 
COMPS,ioos:station:USF.COMPS:ANC:1,2012-09-07T21:42:00Z,28.1930,-82.7890,0.223,1111122 
COMPS,ioos:station:USF.COMPS:ANC:1,2012-09-07T21:48:00Z,28.1930,-82.7890,0.225,1111122 
COMPS,ioos:station:USF.COMPS:ANC:1,2012-09-07T21:54:00Z,28.1930,-82.7890,0.223,1111122 
COMPS,ioos:station:USF.COMPS:ANC:1,2012-09-07T22:00:00Z,28.1930,-82.7890,0.221,1111122 
COMPS,ioos:station:USF.COMPS:ANC:1,2012-09-07T22:06:00Z,28.1930,-82.7890,0.218,1111122 
COMPS,ioos:station:USF.COMPS:ANC:1,2012-09-07T22:12:00Z,28.1930,-82.7890,0.219,1111122 
COMPS,ioos:station:USF.COMPS:ANC:1,2012-09-07T22:18:00Z,28.1930,-82.7890,0.228,1111122 
COMPS,ioos:station:USF.COMPS:ANC:1,2012-09-07T22:24:00Z,28.1930,-82.7890,0.223,1111122 
COMPS,ioos:station:USF.COMPS:ANC:1,2012-09-07T22:30:00Z,28.1930,-82.7890,0.212,1111122 
COMPS,ioos:station:USF.COMPS:ANC:1,2012-09-07T22:36:00Z,28.1930,-82.7890,0.21,1111122 
COMPS,ioos:station:USF.COMPS:ANC:1,2012-09-07T22:42:00Z,28.1930,-82.7890,0.21,1111122 
COMPS,ioos:station:USF.COMPS:ANC:1,2012-09-07T22:48:00Z,28.1930,-82.7890,0.203,1111122 
COMPS,ioos:station:USF.COMPS:ANC:1,2012-09-07T22:54:00Z,28.1930,-82.7890,0.199,1111122 
COMPS,ioos:station:USF.COMPS:ANC:1,2012-09-07T23:00:00Z,28.1930,-82.7890,0.196,1111122 
COMPS,ioos:station:USF.COMPS:ANC:1,2012-09-07T23:06:00Z,28.1930,-82.7890,0.183,1111122 
COMPS,ioos:station:USF.COMPS:ANC:1,2012-09-07T23:12:00Z,28.1930,-82.7890,0.179,1111122 
COMPS,ioos:station:USF.COMPS:ANC:1,2012-09-07T23:18:00Z,28.1930,-82.7890,0.185,1111122 
COMPS,ioos:station:USF.COMPS:ANC:1,2012-09-07T23:24:00Z,28.1930,-82.7890,0.193,1111122 
COMPS,ioos:station:USF.COMPS:ANC:1,2012-09-07T23:30:00Z,28.1930,-82.7890,0.194,1111122 
COMPS,ioos:station:USF.COMPS:ANC:1,2012-09-07T23:36:00Z,28.1930,-82.7890,0.186,1111122 
COMPS,ioos:station:USF.COMPS:ANC:1,2012-09-07T23:42:00Z,28.1930,-82.7890,0.183,1111122 
COMPS,ioos:station:USF.COMPS:ANC:1,2012-09-07T23:48:00Z,28.1930,-82.7890,0.171,1111122 
COMPS,ioos:station:USF.COMPS:ANC:1,2012-09-07T23:54:00Z,28.1930,-82.7890,0.165,1111122 
COMPS,ioos:station:USF.COMPS:ANC:1,2012-09-08T00:00:00Z,28.1930,-82.7890,0.169,1111122 
COMPS,ioos:station:USF.COMPS:ANC:1,2012-09-08T00:06:00Z,28.1930,-82.7890,0.157,1111122 
COMPS,ioos:station:USF.COMPS:ANC:1,2012-09-08T00:12:00Z,28.1930,-82.7890,0.143,1111122 
COMPS,ioos:station:USF.COMPS:ANC:1,2012-09-08T00:18:00Z,28.1930,-82.7890,0.132,1111122 
COMPS,ioos:station:USF.COMPS:ANC:1,2012-09-08T00:24:00Z,28.1930,-82.7890,0.127,1111122 
COMPS,ioos:station:USF.COMPS:ANC:1,2012-09-08T00:30:00Z,28.1930,-82.7890,0.116,1111122 
COMPS,ioos:station:USF.COMPS:ANC:1,2012-09-08T00:36:00Z,28.1930,-82.7890,0.102,1111122 
COMPS,ioos:station:USF.COMPS:ANC:1,2012-09-08T00:42:00Z,28.1930,-82.7890,0.092,1111122 
COMPS,ioos:station:USF.COMPS:ANC:1,2012-09-08T00:48:00Z,28.1930,-82.7890,0.083,1111122 
COMPS,ioos:station:USF.COMPS:ANC:1,2012-09-08T00:54:00Z,28.1930,-82.7890,0.071,1111122 
COMPS,ioos:station:USF.COMPS:ANC:1,2012-09-08T01:00:00Z,28.1930,-82.7890,0.06,1111122 
COMPS,ioos:station:USF.COMPS:ANC:1,2012-09-08T01:06:00Z,28.1930,-82.7890,0.05,1111122 
COMPS,ioos:station:USF.COMPS:ANC:1,2012-09-08T01:12:00Z,28.1930,-82.7890,0.046,1111122 
COMPS,ioos:station:USF.COMPS:ANC:1,2012-09-08T01:18:00Z,28.1930,-82.7890,0.042,1111122 
COMPS,ioos:station:USF.COMPS:ANC:1,2012-09-08T01:24:00Z,28.1930,-82.7890,0.036,1111122 
COMPS,ioos:station:USF.COMPS:ANC:1,2012-09-08T01:30:00Z,28.1930,-82.7890,0.044,1111122 
COMPS,ioos:station:USF.COMPS:ANC:1,2012-09-08T01:36:00Z,28.1930,-82.7890,0.046,1111122 
COMPS,ioos:station:USF.COMPS:ANC:1,2012-09-08T01:42:00Z,28.1930,-82.7890,0.054,1111122 
COMPS,ioos:station:USF.COMPS:ANC:1,2012-09-08T01:48:00Z,28.1930,-82.7890,0.058,1111122 
COMPS,ioos:station:USF.COMPS:ANC:1,2012-09-08T01:54:00Z,28.1930,-82.7890,0.048,1111122 
COMPS,ioos:station:USF.COMPS:ANC:1,2012-09-08T02:00:00Z,28.1930,-82.7890,0.036,1111122 
COMPS,ioos:station:USF.COMPS:ANC:1,2012-09-08T02:06:00Z,28.1930,-82.7890,0.033,1111122 
COMPS,ioos:station:USF.COMPS:ANC:1,2012-09-08T02:12:00Z,28.1930,-82.7890,0.026,1111122 
COMPS,ioos:station:USF.COMPS:ANC:1,2012-09-08T02:18:00Z,28.1930,-82.7890,0.023,1111122 
COMPS,ioos:station:USF.COMPS:ANC:1,2012-09-08T02:24:00Z,28.1930,-82.7890,0.025,1111122 
COMPS,ioos:station:USF.COMPS:ANC:1,2012-09-08T02:30:00Z,28.1930,-82.7890,0.033,1111122 
COMPS,ioos:station:USF.COMPS:ANC:1,2012-09-08T02:36:00Z,28.1930,-82.7890,0.029,1111122 
COMPS,ioos:station:USF.COMPS:ANC:1,2012-09-08T02:42:00Z,28.1930,-82.7890,0.03,1111122 
COMPS,ioos:station:USF.COMPS:ANC:1,2012-09-08T02:48:00Z,28.1930,-82.7890,0.034,1111122 
COMPS,ioos:station:USF.COMPS:ANC:1,2012-09-08T02:54:00Z,28.1930,-82.7890,0.034,1111122 
COMPS,ioos:station:USF.COMPS:ANC:1,2012-09-08T03:00:00Z,28.1930,-82.7890,0.029,1111122 
COMPS,ioos:station:USF.COMPS:ANC:1,2012-09-08T03:06:00Z,28.1930,-82.7890,0.03,1111122 
COMPS,ioos:station:USF.COMPS:ANC:1,2012-09-08T03:12:00Z,28.1930,-82.7890,0.038,1111122 
COMPS,ioos:station:USF.COMPS:ANC:1,2012-09-08T03:18:00Z,28.1930,-82.7890,0.046,1111122 
COMPS,ioos:station:USF.COMPS:ANC:1,2012-09-08T03:24:00Z,28.1930,-82.7890,0.049,1111122 
COMPS,ioos:station:USF.COMPS:ANC:1,2012-09-08T03:30:00Z,28.1930,-82.7890,0.058,1111122 
COMPS,ioos:station:USF.COMPS:ANC:1,2012-09-08T03:36:00Z,28.1930,-82.7890,0.062,1111122 
COMPS,ioos:station:USF.COMPS:ANC:1,2012-09-08T03:42:00Z,28.1930,-82.7890,0.063,1111122 
COMPS,ioos:station:USF.COMPS:ANC:1,2012-09-08T03:48:00Z,28.1930,-82.7890,0.069,1111122 
COMPS,ioos:station:USF.COMPS:ANC:1,2012-09-08T03:54:00Z,28.1930,-82.7890,0.074,1111122 
COMPS,ioos:station:USF.COMPS:ANC:1,2012-09-08T04:00:00Z,28.1930,-82.7890,0.077,1111122 
COMPS,ioos:station:USF.COMPS:ANC:1,2012-09-08T04:06:00Z,28.1930,-82.7890,0.086,1111122 
COMPS,ioos:station:USF.COMPS:ANC:1,2012-09-08T04:12:00Z,28.1930,-82.7890,0.094,1111122 
COMPS,ioos:station:USF.COMPS:ANC:1,2012-09-08T04:18:00Z,28.1930,-82.7890,0.1,1111122 
COMPS,ioos:station:USF.COMPS:ANC:1,2012-09-08T04:24:00Z,28.1930,-82.7890,0.104,1111122 
COMPS,ioos:station:USF.COMPS:ANC:1,2012-09-08T04:30:00Z,28.1930,-82.7890,0.109,1111122 
COMPS,ioos:station:USF.COMPS:ANC:1,2012-09-08T04:36:00Z,28.1930,-82.7890,0.119,1111122 
COMPS,ioos:station:USF.COMPS:ANC:1,2012-09-08T04:42:00Z,28.1930,-82.7890,0.127,1111122 
COMPS,ioos:station:USF.COMPS:ANC:1,2012-09-08T04:48:00Z,28.1930,-82.7890,0.14,1111122 
COMPS,ioos:station:USF.COMPS:ANC:1,2012-09-08T04:54:00Z,28.1930,-82.7890,0.15,1111122 
COMPS,ioos:station:USF.COMPS:ANC:1,2012-09-08T05:00:00Z,28.1930,-82.7890,0.159,1111122 
COMPS,ioos:station:USF.COMPS:ANC:1,2012-09-08T05:06:00Z,28.1930,-82.7890,0.171,1111122 
COMPS,ioos:station:USF.COMPS:ANC:1,2012-09-08T05:12:00Z,28.1930,-82.7890,0.184,1111122 
COMPS,ioos:station:USF.COMPS:ANC:1,2012-09-08T05:18:00Z,28.1930,-82.7890,0.198,1111122 
COMPS,ioos:station:USF.COMPS:ANC:1,2012-09-08T05:24:00Z,28.1930,-82.7890,0.211,1111122 
COMPS,ioos:station:USF.COMPS:ANC:1,2012-09-08T05:30:00Z,28.1930,-82.7890,0.227,1111122 
COMPS,ioos:station:USF.COMPS:ANC:1,2012-09-08T05:36:00Z,28.1930,-82.7890,0.238,1111122 
COMPS,ioos:station:USF.COMPS:ANC:1,2012-09-08T05:42:00Z,28.1930,-82.7890,0.247,1111122 
COMPS,ioos:station:USF.COMPS:ANC:1,2012-09-08T05:48:00Z,28.1930,-82.7890,0.255,1111122 
COMPS,ioos:station:USF.COMPS:ANC:1,2012-09-08T05:54:00Z,28.1930,-82.7890,0.268,1111122 
COMPS,ioos:station:USF.COMPS:ANC:1,2012-09-08T06:00:00Z,28.1930,-82.7890,0.284,1111122 
COMPS,ioos:station:USF.COMPS:ANC:1,2012-09-08T06:06:00Z,28.1930,-82.7890,0.297,1111122 
COMPS,ioos:station:USF.COMPS:ANC:1,2012-09-08T06:12:00Z,28.1930,-82.7890,0.301,1111122 
COMPS,ioos:station:USF.COMPS:ANC:1,2012-09-08T06:18:00Z,28.1930,-82.7890,0.319,1111122 
COMPS,ioos:station:USF.COMPS:ANC:1,2012-09-08T06:24:00Z,28.1930,-82.7890,0.331,1111122 
COMPS,ioos:station:USF.COMPS:ANC:1,2012-09-08T06:30:00Z,28.1930,-82.7890,0.344,1111122 
COMPS,ioos:station:USF.COMPS:ANC:1,2012-09-08T06:36:00Z,28.1930,-82.7890,0.358,1111122 
COMPS,ioos:station:USF.COMPS:ANC:1,2012-09-08T06:42:00Z,28.1930,-82.7890,0.367,1111122 
COMPS,ioos:station:USF.COMPS:ANC:1,2012-09-08T06:48:00Z,28.1930,-82.7890,0.377,1111122 
COMPS,ioos:station:USF.COMPS:ANC:1,2012-09-08T06:54:00Z,28.1930,-82.7890,0.386,1111122 
COMPS,ioos:station:USF.COMPS:ANC:1,2012-09-08T07:00:00Z,28.1930,-82.7890,0.398,1111122 
COMPS,ioos:station:USF.COMPS:ANC:1,2012-09-08T07:06:00Z,28.1930,-82.7890,0.406,1111122 
COMPS,ioos:station:USF.COMPS:ANC:1,2012-09-08T07:12:00Z,28.1930,-82.7890,0.417,1111122 
COMPS,ioos:station:USF.COMPS:ANC:1,2012-09-08T07:18:00Z,28.1930,-82.7890,0.425,1111122 
COMPS,ioos:station:USF.COMPS:ANC:1,2012-09-08T07:24:00Z,28.1930,-82.7890,0.437,1111122 
COMPS,ioos:station:USF.COMPS:ANC:1,2012-09-08T07:30:00Z,28.1930,-82.7890,0.458,1111122 
COMPS,ioos:station:USF.COMPS:ANC:1,2012-09-08T07:36:00Z,28.1930,-82.7890,0.473,1111122 
COMPS,ioos:station:USF.COMPS:ANC:1,2012-09-08T07:42:00Z,28.1930,-82.7890,0.484,1111122 
COMPS,ioos:station:USF.COMPS:ANC:1,2012-09-08T07:48:00Z,28.1930,-82.7890,0.49,1111122 
COMPS,ioos:station:USF.COMPS:ANC:1,2012-09-08T07:54:00Z,28.1930,-82.7890,0.5,1111122 
COMPS,ioos:station:USF.COMPS:ANC:1,2012-09-08T08:00:00Z,28.1930,-82.7890,0.512,1111122 
COMPS,ioos:station:USF.COMPS:ANC:1,2012-09-08T08:06:00Z,28.1930,-82.7890,0.524,1111122 
COMPS,ioos:station:USF.COMPS:ANC:1,2012-09-08T08:12:00Z,28.1930,-82.7890,0.53,1111122 
COMPS,ioos:station:USF.COMPS:ANC:1,2012-09-08T08:18:00Z,28.1930,-82.7890,0.532,1111122 
COMPS,ioos:station:USF.COMPS:ANC:1,2012-09-08T08:24:00Z,28.1930,-82.7890,0.532,1111122 
COMPS,ioos:station:USF.COMPS:ANC:1,2012-09-08T08:30:00Z,28.1930,-82.7890,0.536,1111122 
COMPS,ioos:station:USF.COMPS:ANC:1,2012-09-08T08:36:00Z,28.1930,-82.7890,0.542,1111122 
COMPS,ioos:station:USF.COMPS:ANC:1,2012-09-08T08:42:00Z,28.1930,-82.7890,0.543,1111122 
COMPS,ioos:station:USF.COMPS:ANC:1,2012-09-08T08:48:00Z,28.1930,-82.7890,0.544,1111122 
COMPS,ioos:station:USF.COMPS:ANC:1,2012-09-08T08:54:00Z,28.1930,-82.7890,0.549,1111122 
COMPS,ioos:station:USF.COMPS:ANC:1,2012-09-08T09:00:00Z,28.1930,-82.7890,0.561,1111122 
COMPS,ioos:station:USF.COMPS:ANC:1,2012-09-08T09:06:00Z,28.1930,-82.7890,0.566,1111122 
COMPS,ioos:station:USF.COMPS:ANC:1,2012-09-08T09:12:00Z,28.1930,-82.7890,0.569,1111122 
COMPS,ioos:station:USF.COMPS:ANC:1,2012-09-08T09:18:00Z,28.1930,-82.7890,0.575,1111122 
COMPS,ioos:station:USF.COMPS:ANC:1,2012-09-08T09:24:00Z,28.1930,-82.7890,0.584,1111122 
COMPS,ioos:station:USF.COMPS:ANC:1,2012-09-08T09:30:00Z,28.1930,-82.7890,0.586,1111122 
COMPS,ioos:station:USF.COMPS:ANC:1,2012-09-08T09:36:00Z,28.1930,-82.7890,0.578,1111122 
COMPS,ioos:station:USF.COMPS:ANC:1,2012-09-08T09:42:00Z,28.1930,-82.7890,0.576,1111122 
COMPS,ioos:station:USF.COMPS:ANC:1,2012-09-08T09:48:00Z,28.1930,-82.7890,0.572,1111122 
COMPS,ioos:station:USF.COMPS:ANC:1,2012-09-08T09:54:00Z,28.1930,-82.7890,0.572,1111122 
COMPS,ioos:station:USF.COMPS:ANC:1,2012-09-08T10:00:00Z,28.1930,-82.7890,0.564,1111122 
COMPS,ioos:station:USF.COMPS:ANC:1,2012-09-08T10:06:00Z,28.1930,-82.7890,0.549,1111122 
COMPS,ioos:station:USF.COMPS:ANC:1,2012-09-08T10:12:00Z,28.1930,-82.7890,0.551,1111122 
COMPS,ioos:station:USF.COMPS:ANC:1,2012-09-08T10:18:00Z,28.1930,-82.7890,0.539,1111122 
COMPS,ioos:station:USF.COMPS:ANC:1,2012-09-08T10:24:00Z,28.1930,-82.7890,0.522,1111122 
COMPS,ioos:station:USF.COMPS:ANC:1,2012-09-08T10:30:00Z,28.1930,-82.7890,0.529,1111122 
COMPS,ioos:station:USF.COMPS:ANC:1,2012-09-08T10:36:00Z,28.1930,-82.7890,0.524,1111122 
COMPS,ioos:station:USF.COMPS:ANC:1,2012-09-08T10:42:00Z,28.1930,-82.7890,0.508,1111122 
COMPS,ioos:station:USF.COMPS:ANC:1,2012-09-08T10:48:00Z,28.1930,-82.7890,0.494,1111122 
COMPS,ioos:station:USF.COMPS:ANC:1,2012-09-08T10:54:00Z,28.1930,-82.7890,0.484,1111122 
COMPS,ioos:station:USF.COMPS:ANC:1,2012-09-08T11:00:00Z,28.1930,-82.7890,0.468,1111122 
COMPS,ioos:station:USF.COMPS:ANC:1,2012-09-08T11:06:00Z,28.1930,-82.7890,0.449,1111122 
COMPS,ioos:station:USF.COMPS:ANC:1,2012-09-08T11:12:00Z,28.1930,-82.7890,0.435,1111122 
COMPS,ioos:station:USF.COMPS:ANC:1,2012-09-08T11:18:00Z,28.1930,-82.7890,0.424,1111122 
COMPS,ioos:station:USF.COMPS:ANC:1,2012-09-08T11:24:00Z,28.1930,-82.7890,0.421,1111122 
COMPS,ioos:station:USF.COMPS:ANC:1,2012-09-08T11:30:00Z,28.1930,-82.7890,0.41,1111122 
COMPS,ioos:station:USF.COMPS:ANC:1,2012-09-08T11:36:00Z,28.1930,-82.7890,0.373,1111122 
COMPS,ioos:station:USF.COMPS:ANC:1,2012-09-08T11:42:00Z,28.1930,-82.7890,0.38,1111122 
COMPS,ioos:station:USF.COMPS:ANC:1,2012-09-08T11:48:00Z,28.1930,-82.7890,0.367,1111122 
COMPS,ioos:station:USF.COMPS:ANC:1,2012-09-08T11:54:00Z,28.1930,-82.7890,0.39,1111122 
COMPS,ioos:station:USF.COMPS:ANC:1,2012-09-08T12:00:00Z,28.1930,-82.7890,0.395,1111122 
COMPS,ioos:station:USF.COMPS:ANC:1,2012-09-08T12:06:00Z,28.1930,-82.7890,0.373,1111122 
COMPS,ioos:station:USF.COMPS:ANC:1,2012-09-08T12:12:00Z,28.1930,-82.7890,0.33,1111122 
COMPS,ioos:station:USF.COMPS:ANC:1,2012-09-08T12:18:00Z,28.1930,-82.7890,0.301,1111122 
COMPS,ioos:station:USF.COMPS:ANC:1,2012-09-08T12:24:00Z,28.1930,-82.7890,0.283,1111122 
COMPS,ioos:station:USF.COMPS:ANC:1,2012-09-08T12:30:00Z,28.1930,-82.7890,0.264,1111122 
COMPS,ioos:station:USF.COMPS:ANC:1,2012-09-08T12:36:00Z,28.1930,-82.7890,0.252,1111122 
COMPS,ioos:station:USF.COMPS:ANC:1,2012-09-08T12:42:00Z,28.1930,-82.7890,0.243,1111122 
COMPS,ioos:station:USF.COMPS:ANC:1,2012-09-08T12:48:00Z,28.1930,-82.7890,0.227,1111122 
COMPS,ioos:station:USF.COMPS:ANC:1,2012-09-08T12:54:00Z,28.1930,-82.7890,0.217,1111122 
COMPS,ioos:station:USF.COMPS:ANC:1,2012-09-08T13:00:00Z,28.1930,-82.7890,0.201,1111122 
COMPS,ioos:station:USF.COMPS:ANC:1,2012-09-08T13:06:00Z,28.1930,-82.7890,0.176,1111122 
COMPS,ioos:station:USF.COMPS:ANC:1,2012-09-08T13:12:00Z,28.1930,-82.7890,0.17,1111122 
COMPS,ioos:station:USF.COMPS:ANC:1,2012-09-08T13:18:00Z,28.1930,-82.7890,0.167,1111122 
COMPS,ioos:station:USF.COMPS:ANC:1,2012-09-08T13:24:00Z,28.1930,-82.7890,0.142,1111122 
COMPS,ioos:station:USF.COMPS:ANC:1,2012-09-08T13:30:00Z,28.1930,-82.7890,0.114,1111122 
COMPS,ioos:station:USF.COMPS:ANC:1,2012-09-08T13:36:00Z,28.1930,-82.7890,0.114,1111122 
COMPS,ioos:station:USF.COMPS:ANC:1,2012-09-08T13:42:00Z,28.1930,-82.7890,0.106,1111122 
COMPS,ioos:station:USF.COMPS:ANC:1,2012-09-08T13:48:00Z,28.1930,-82.7890,0.097,1111122 
COMPS,ioos:station:USF.COMPS:ANC:1,2012-09-08T13:54:00Z,28.1930,-82.7890,0.092,1111122 
COMPS,ioos:station:USF.COMPS:ANC:1,2012-09-08T14:00:00Z,28.1930,-82.7890,0.08,1111122 
COMPS,ioos:station:USF.COMPS:ANC:1,2012-09-08T14:06:00Z,28.1930,-82.7890,0.063,1111122 
COMPS,ioos:station:USF.COMPS:ANC:1,2012-09-08T14:12:00Z,28.1930,-82.7890,0.048,1111122 
COMPS,ioos:station:USF.COMPS:ANC:1,2012-09-08T14:18:00Z,28.1930,-82.7890,0.06,1111122 
COMPS,ioos:station:USF.COMPS:ANC:1,2012-09-08T14:24:00Z,28.1930,-82.7890,0.041,1111122 
COMPS,ioos:station:USF.COMPS:ANC:1,2012-09-08T14:30:00Z,28.1930,-82.7890,0.014,1111122 
COMPS,ioos:station:USF.COMPS:ANC:1,2012-09-08T14:36:00Z,28.1930,-82.7890,0.018,1111122 
COMPS,ioos:station:USF.COMPS:ANC:1,2012-09-08T14:42:00Z,28.1930,-82.7890,0.001,1111122 
COMPS,ioos:station:USF.COMPS:ANC:1,2012-09-08T14:48:00Z,28.1930,-82.7890,-0.008,1111122 
COMPS,ioos:station:USF.COMPS:ANC:1,2012-09-08T14:54:00Z,28.1930,-82.7890,-0.023,1111122 
COMPS,ioos:station:USF.COMPS:ANC:1,2012-09-08T15:00:00Z,28.1930,-82.7890,-0.049,1111122 
COMPS,ioos:station:USF.COMPS:ANC:1,2012-09-08T15:06:00Z,28.1930,-82.7890,-0.073,1111122 
COMPS,ioos:station:USF.COMPS:ANC:1,2012-09-08T15:12:00Z,28.1930,-82.7890,-0.08,1111122 
COMPS,ioos:station:USF.COMPS:ANC:1,2012-09-08T15:18:00Z,28.1930,-82.7890,-0.072,1111122 
COMPS,ioos:station:USF.COMPS:ANC:1,2012-09-08T15:24:00Z,28.1930,-82.7890,-0.048,1111122 
COMPS,ioos:station:USF.COMPS:ANC:1,2012-09-08T15:30:00Z,28.1930,-82.7890,-0.034,1111122 
COMPS,ioos:station:USF.COMPS:ANC:1,2012-09-08T15:36:00Z,28.1930,-82.7890,-0.044,1111122 
COMPS,ioos:station:USF.COMPS:ANC:1,2012-09-08T15:42:00Z,28.1930,-82.7890,-0.045,1111122 
COMPS,ioos:station:USF.COMPS:ANC:1,2012-09-08T15:48:00Z,28.1930,-82.7890,-0.043,1111122 
COMPS,ioos:station:USF.COMPS:ANC:1,2012-09-08T15:54:00Z,28.1930,-82.7890,-0.058,1111122 
COMPS,ioos:station:USF.COMPS:ANC:1,2012-09-08T16:00:00Z,28.1930,-82.7890,-0.061,1111122 